Dewpoint
42 41 41 40 40 40 39 39 39 38 38 39 39 40 41 42 42 44 39 43 41 37 35 34 32 32 34 37 34 35 33 39 37 35 37 38 33 35 29 25 24 28 30 31 33 32 30 24 17 21 34 30 26 27
42 41 41 41 40 39 39 39 39 39 39 40 40 41 42 42 42 43 40 39 44 39 37 40 39 38 37 38 38 36 35 34 39 40 42 42 37 36 31 30 26 29 30 35 31 37 39 32 31 31 28 31 31 34
42 41 41 41 40 40 39 39 39 38 39 40 41 42 42 42 42 43 42 39 42 38 38 36 32 34 35 37 41 34 37 39 37 39 42 41 39 35 34 32 28 27 29 35 35 33 32 31 29 28 26 29 27 28
42 41 41 41 40 40 39 39 38 38 40 40 41 42 43 43 43 43 42 42 43 39 34 29 31 32 35 37 40 40 36 40 39 39 40 39 38 36 32 31 29 29 30 30 32 28 31 28 29 27 25 25 23 26
42 41 41 40 40 39 39 38 38 39 40 41 42 42 43 42 44 45 45 45 45 38 31 32 37 35 34 38 39 39 38 38 38 37 40 36 37 33 32 32 29 28 30 33 37 36 38 33 32 30 27 25 24 27
42 41 41 40 39 39 38 38 39 40 40 41 42 42 42 44 45 43 38 45 45 44 37 29 33 34 35 39 39 39 40 39 38 38 40 40 41 36 30 28 29 32 31 33 34 34 36 35 32 27 27 27 24 28
42 41 40 40 39 38 38 38 39 40 41 42 42 43 44 45 46 40 37 42 42 46 37 33 24 27 31 36 37 40 41 39 39 40 40 40 39 37 33 31 28 30 27 30 32 31 32 29 27 28 26 26 31 24
42 40 40 39 38 38 37 38 40 40 41 42 42 44 45 47 45 41 43 44 43 41 39 34 28 31 32 36 36 40 38 40 40 40 42 39 40 40 37 32 31 29 27 30 30 30 32 31 28 27 26 26 25 24
40 39 39 38 37 37 38 39 40 41 42 42 43 45 46 42 37 41 45 45 44 38 35 31 27 28 36 35 38 38 39 37 40 39 39 40 37 37 38 34 31 31 33 31 29 29 30 32 30 30 29 28 26 25
39 39 38 37 37 38 39 40 40 40 41 43 44 39 32 38 44 43 40 39 39 39 37 29 26 29 38 37 39 40 41 38 36 36 39 37 37 38 36 35 35 36 34 34 35 36 37 36 34 34 31 31 29 27
38 38 37 37 38 39 40 40 40 40 42 43 35 35 41 44 41 37 32 31 33 33 31 27 28 24 38 36 37 40 38 37 34 35 35 35 35 37 38 39 38 37 37 35 35 37 38 38 37 38 37 36 34 32
36 35 37 37 38 40 40 40 40 41 42 39 41 44 43 39 34 32 32 34 34 27 25 26 26 28 39 41 38 39 37 37 30 38 37 32 34 35 38 38 38 39 39 37 37 36 38 37 38 39 39 37 35 35
36 36 38 39 39 40 40 40 41 43 44 43 39 34 33 34 30 30 26 27 26 25 22 25 27 28 38 39 34 36 35 35 33 37 35 37 37 35 37 39 38 39 40 40 39 39 39 40 39 41 39 39 40 39
36 38 39 39 39 39 40 41 43 44 43 37 33 30 31 30 30 26 22 21 24 23 23 26 28 29 38 35 35 32 36 34 30 30 29 37 35 37 39 40 39 39 39 40 39 39 40 42 41 44 42 41 40 41
38 39 39 39 40 40 41 42 44 44 37 35 35 30 29 30 28 26 26 26 26 27 25 28 30 27 34 34 35 35 34 31 30 28 39 39 35 36 37 38 37 39 41 42 40 40 41 43 40 43 47 46 41 42
38 38 38 39 40 41 42 43 44 43 40 35 35 31 29 29 36 35 31 29 29 27 28 28 29 29 32 33 33 32 34 28 33 39 40 43 41 40 39 40 42 42 41 41 41 42 42 42 42 42 45 44 42 44
38 37 39 40 40 41 42 42 41 37 34 36 35 34 32 29 31 32 31 30 30 27 31 30 29 27 30 29 28 32 33 39 42 44 44 39 38 38 39 41 44 44 43 43 44 43 42 43 44 42 43 43 45 45
37 40 40 41 42 42 42 41 37 33 32 35 32 34 34 33 34 33 32 31 28 25 27 28 28 26 27 21 26 33 40 42 42 45 45 44 40 39 37 38 40 42 42 43 43 42 43 43 43 42 42 43 43 44
39 41 42 42 42 39 34 34 37 33 33 32 33 33 34 35 33 34 31 31 30 28 28 30 27 29 30 32 33 37 38 36 37 41 43 43 42 41 39 39 40 39 40 41 40 41 42 42 43 42 42 41 41 42
41 42 42 43 41 35 32 35 39 32 30 33 33 32 32 33 32 34 33 32 30 29 28 28 30 31 30 31 32 33 35 43 41 43 43 44 44 41 39 42 39 39 39 41 42 37 40 41 40 41 41 41 42 41
43 43 43 43 40 39 37 37 33 31 33 32 32 32 32 32 32 34 33 32 33 31 30 32 33 34 36 34 33 37 42 40 41 40 40 40 41 41 41 40 39 41 42 42 43 42 41 45 45 44 44 46 45 44
42 43 42 39 34 37 35 37 33 33 33 33 33 33 33 33 32 34 35 34 32 34 35 34 33 32 33 34 33 33 34 35 43 42 37 38 40 41 42 42 42 43 43 46 45 47 47 46 47 48 48 45 44 45
42 41 37 35 32 33 34 39 35 34 34 33 34 33 33 34 34 34 32 34 35 37 36 34 32 32 32 32 33 35 39 38 37 38 39 39 41 43 45 46 45 45 44 45 47 48 46 42 42 45 44 44 43 40
41 34 32 32 33 32 34 35 35 36 35 33 33 31 31 34 34 33 30 32 36 39 37 36 35 34 33 36 37 39 41 38 40 41 42 41 42 44 45 46 45 47 47 47 47 45 44 43 40 43 40 37 37 37
33 31 33 31 35 33 32 34 32 32 32 32 31 33 35 36 33 31 29 32 36 39 39 39 39 39 37 37 39 39 42 43 41 42 44 44 44 47 46 47 46 47 48 46 42 39 38 38 37 37 36 35 37 36
28 32 33 32 33 33 31 31 32 32 31 33 34 33 35 32 30 30 28 32 36 38 39 40 41 40 41 40 38 39 42 42 41 42 44 46 45 46 45 44 43 43 46 45 40 37 38 37 36 36 35 36 35 35
29 29 30 32 32 32 33 34 33 33 31 31 33 32 32 29 31 34 35 35 35 39 39 43 41 41 40 41 43 43 42 41 41 42 45 46 47 46 46 43 41 44 46 42 40 38 37 36 36 35 35 35 35 35
30 30 30 31 32 31 32 32 33 32 34 35 35 32 31 32 29 28 31 32 31 32 34 39 44 44 44 43 43 41 40 42 42 42 42 42 41 41 42 42 39 35 42 39 38 37 37 36 36 35 35 35 34 35
30 30 30 29 30 30 30 31 30 33 33 32 32 30 24 21 22 23 25 26 28 33 35 35 36 37 37 36 36 37 40 41 40 37 37 37 38 38 38 41 40 38 37 37 33 36 36 36 35 35 35 34 34 34
29 31 29 28 26 26 29 30 30 33 31 28 25 21 19 20 23 25 24 24 30 32 32 33 33 34 33 33 33 33 33 34 34 36 36 36 35 34 35 34 34 35 35 35 35 35 33 35 35 35 35 34 34 34
29 31 29 28 26 27 29 30 29 28 28 26 26 22 20 23 25 25 23 23 28 32 31 30 30 32 32 32 33 33 32 33 34 34 34 34 34 33 33 34 34 35 35 35 35 35 35 35 35 34 34 34 34 34
30 30 27 25 26 30 31 31 28 27 27 25 24 27 26 22 19 21 23 23 22 25 28 30 29 28 31 31 31 31 31 31 32 33 33 33 33 34 35 35 35 35 35 35 35 35 35 35 34 34 34 34 34 34
31 31 30 28 28 28 30 30 27 26 26 24 22 22 22 19 15 20 24 25 23 22 25 29 30 31 31 31 31 31 31 31 31 31 31 32 33 33 34 34 35 35 35 35 35 35 35 35 34 34 34 34 34 35
Lifted_Index
10 10 10 10 11 11 11 11 12 12 12 12 11 10 9 8 7 6 5 5 5 5 4 4 4 4 5 6 7 6 5 4 3 2 1 -0 -0 -0 1 1 2 2 2 2 2 2 2 4 5 5 5 5 6 5
9 9 10 10 10 11 11 11 11 11 11 11 10 9 8 7 6 6 5 5 5 5 4 4 4 5 5 6 7 7 6 5 3 2 1 -0 -0 -0 0 1 2 2 2 2 2 2 3 4 5 5 5 6 5 5
9 9 9 10 10 10 10 11 11 11 10 9 8 7 6 6 6 5 5 5 5 5 4 4 4 5 5 6 7 7 7 6 5 3 1 0 0 0 0 1 2 3 3 2 3 3 4 5 6 6 6 6 6 6
8 9 9 9 10 10 10 10 10 10 9 8 7 6 6 6 5 5 5 4 4 4 4 4 4 4 5 6 7 7 8 7 6 4 2 1 1 1 1 1 2 3 3 3 3 3 4 5 5 6 7 7 7 6
8 8 9 9 9 9 10 10 9 9 8 7 6 6 6 5 5 5 5 4 4 4 4 3 4 4 5 6 7 7 8 7 6 4 2 1 1 1 1 1 2 3 3 3 3 3 3 4 5 6 6 7 7 7
7 8 8 8 9 9 9 9 8 8 7 7 6 6 5 5 4 4 4 4 4 4 4 4 4 4 4 5 6 7 7 7 6 4 3 1 1 1 1 2 2 2 3 3 3 3 4 4 5 6 6 7 7 7
7 7 8 8 8 9 9 9 8 7 7 6 6 5 4 3 3 4 4 4 4 4 4 4 4 4 4 5 5 6 7 7 6 4 3 1 1 1 2 2 2 2 3 3 4 4 4 4 5 6 6 7 7 7
7 7 7 8 8 9 9 8 8 7 7 6 5 4 3 3 3 3 3 3 3 4 4 4 4 4 4 4 4 5 6 6 6 4 3 2 1 2 2 2 2 2 3 3 4 4 4 4 5 6 6 7 7 7
7 7 7 8 8 9 8 8 7 7 6 5 4 3 3 3 3 4 3 3 3 3 4 4 4 4 3 3 3 4 4 4 4 4 3 2 2 3 3 2 3 3 3 3 4 4 4 4 5 5 6 6 7 7
7 7 8 8 9 8 8 7 7 6 5 4 3 3 3 3 4 4 3 3 3 4 4 4 4 3 3 2 2 2 2 3 3 3 3 3 3 3 3 2 2 3 3 3 3 4 4 4 5 5 6 6 7 7
8 8 8 8 8 8 7 7 7 6 4 3 3 3 3 3 4 4 4 4 4 4 4 5 4 3 3 2 2 2 2 2 2 3 3 3 3 3 2 2 2 2 3 3 4 4 4 4 4 5 5 6 6 7
8 8 8 8 8 7 7 7 6 5 4 2 2 2 3 3 3 4 4 5 5 5 5 5 4 4 3 3 3 2 2 2 3 3 3 3 3 2 2 2 2 2 3 3 4 4 4 4 4 5 5 6 6 7
9 8 8 8 7 7 7 6 6 4 3 2 2 2 2 3 4 4 5 5 5 5 5 4 4 4 4 4 3 3 3 3 3 3 3 3 3 2 1 1 2 2 3 3 3 4 4 4 5 5 6 6 6 7
8 8 8 7 7 7 6 6 5 3 2 2 1 2 2 3 3 4 4 4 5 5 4 4 4 4 4 4 4 3 3 3 3 4 4 3 3 2 1 1 1 2 2 3 3 4 4 4 5 5 6 6 6 7
8 8 7 7 7 6 5 5 4 3 2 1 1 2 2 3 2 2 3 3 4 4 3 3 3 3 3 4 4 3 3 3 3 4 4 3 3 2 2 1 1 1 2 3 3 4 4 4 5 5 5 6 6 6
8 7 7 7 6 5 4 3 3 2 2 1 2 2 2 2 1 1 1 2 2 2 2 2 3 3 3 3 4 3 3 2 2 2 3 3 3 3 2 2 2 2 2 2 3 3 4 4 5 5 5 6 6 6
7 7 7 6 5 4 3 2 2 2 1 2 2 2 1 1 0 0 0 1 1 1 2 2 2 3 3 3 3 3 2 1 0 0 1 2 3 3 3 3 2 2 3 3 3 3 4 4 5 5 5 6 6 6
7 6 6 5 4 3 2 2 2 2 2 2 2 1 1 0 0 -0 -0 0 1 1 1 1 2 2 2 2 2 1 0 -0 -1 -1 -1 1 2 3 4 4 4 4 4 4 4 4 4 5 5 5 5 6 6 6
6 5 5 4 3 3 2 2 2 2 2 2 2 1 0 -0 -0 -0 -0 0 1 1 1 1 2 2 2 2 1 0 -0 -1 -1 -1 -1 -0 1 3 4 5 5 5 5 5 5 5 5 5 5 6 6 6 6 6
4 4 4 4 3 2 2 2 2 3 2 2 1 1 0 -0 -0 -0 -0 1 1 1 1 1 1 2 2 2 1 1 0 -0 -0 -0 -0 0 1 2 4 5 6 5 5 5 5 5 5 5 6 6 7 7 7 7
3 3 3 3 3 2 1 2 2 2 2 1 1 0 -0 -0 -0 -0 0 1 1 1 1 1 1 1 2 2 2 2 1 1 1 1 1 1 2 3 4 5 6 5 5 5 6 6 6 6 6 7 7 8 8 8
3 3 3 3 2 2 2 1 1 1 1 1 0 0 -0 -0 -0 0 1 2 2 2 1 1 1 2 2 2 2 2 2 2 2 2 2 2 3 3 4 4 5 5 5 6 6 6 6 7 7 8 8 8 8 8
3 3 2 2 2 1 1 1 1 0 1 0 0 0 0 -0 -0 1 2 3 3 2 2 1 2 2 3 3 3 3 3 3 3 3 3 3 4 4 4 4 5 5 5 6 6 7 7 8 8 8 8 8 8 8
2 2 2 1 1 1 1 1 0 0 0 0 0 0 0 0 0 1 3 3 3 2 2 2 2 3 3 3 3 3 3 3 3 3 3 4 4 4 4 5 5 6 6 6 7 8 8 9 9 9 9 9 9 9
2 1 1 1 1 1 1 1 1 1 1 0 0 0 0 0 1 2 3 3 3 3 3 2 3 3 3 3 3 3 3 4 4 4 3 4 4 4 4 5 5 6 6 6 7 8 9 9 9 9 10 10 10 10
1 1 1 1 1 1 1 1 1 1 1 1 0 0 1 1 1 3 4 4 4 4 4 3 3 3 3 3 3 3 4 4 5 5 4 4 4 4 4 5 6 7 7 7 8 8 8 8 9 9 10 10 10 10
1 1 2 2 1 1 1 1 1 1 1 1 1 1 1 1 2 3 4 4 5 5 5 4 4 4 3 4 4 4 5 5 6 5 5 4 4 4 5 6 7 8 9 9 8 8 8 8 9 9 10 10 10 10
2 2 2 2 2 1 1 1 1 1 1 1 1 1 1 2 3 4 5 5 5 5 5 5 5 4 4 4 4 5 5 6 6 5 4 4 4 5 7 7 8 9 9 9 9 8 9 9 9 9 10 10 10 10
2 2 2 2 2 2 2 2 2 2 2 2 2 2 3 4 5 6 7 7 6 6 5 5 5 5 4 4 4 4 5 5 5 4 3 3 4 6 8 9 9 10 9 9 9 9 9 9 10 10 10 10 10 10
3 3 3 2 2 2 3 3 4 4 5 5 5 5 5 6 8 10 9 8 8 7 6 6 5 5 5 4 4 4 4 5 5 5 4 4 6 8 9 10 10 10 10 9 9 10 10 10 10 10 10 10 10 10
4 4 4 3 4 4 5 6 7 8 8 8 8 8 8 8 10 12 12 10 9 8 7 7 6 6 6 5 5 5 6 7 7 7 7 7 8 9 10 10 10 10 10 10 10 10 10 11 11 11 10 10 10 10
5 5 5 5 5 7 9 10 10 11 11 11 11 11 10 10 10 12 13 12 10 9 8 8 8 8 8 8 8 8 8 9 9 9 9 9 10 10 10 10 10 10 11 11 11 11 11 11 11 11 11 10 10 10
6 6 5 5 7 9 10 11 11 12 12 12 12 12 11 10 9 12 15 14 11 9 8 9 9 10 10 10 9 9 10 10 10 10 10 10 10 10 10 10 11 11 11 11 12 12 11 11 11 11 11 11 10 10